Voltar ao catálogo

STARLINK-35784

AtivoComunicaçõesVLEO
NORAD 67093·PAYLOAD·🇺🇸 United States

Lançado Dec 14, 2025 de Vandenberg Space Force Base

Loading…

Próximas Passagens (próximas 24 horas)

TLE

AtualizadoSource: CelesTrak SupGP

Época: Sep 15, 2026, 03:34 UTC

1 67093C 25298U   26258.14909722 -.00044091  00000+0 -36946-2 0  2585
2 67093  70.0000 256.6640 0004158 266.0265 289.1622 14.98353889    17

Acompanhe STARLINK-35784 em tempo real com AllMySat

Download on the App Store